Location: Unspecified
(0.0000°N, 0.0000°E)
Time: 20:14:51
(UTC+00:00)

COSMOS 1275 DEB - Pass Details

Date: 24 March 2026
Orbit: 902 x 973 km, 82.9° (Epoch: 8 April)

Event Time Altitude Azimuth Distance (km) Brightness Sun altitude
Rises 18:32:27 0° 341° (NNW) 3,650 ? -6.6°
Reaches altitude 10° 18:35:08 10° 333° (NNW) 2,702 ? -7.2°
Maximum altitude 18:40:46 37° 267° (W) 1,448 ? -8.6°
Drops below altitude 10° 18:46:22 10° 201° (SSW) 2,681 ? -10.0°
Sets 18:49:03 0° 193° (SSW) 3,618 ? -10.7°
